Temp
-12 -12 -12 -12 -12 -12 -12 -13 -13 -13 -14 -14 -14 -14 -14 -13 -13 -12 -12 -13 -13 -14 -13 -13 -14 -13 -14 -15 -15 -16 -17 -17 -18 -18 -19 -22 -24 -25 -26 -26 -26 -26 -27 -27
-12 -13 -12 -12 -12 -13 -13 -13 -13 -13 -14 -14 -14 -14 -15 -14 -13 -13 -14 -14 -14 -14 -14 -14 -14 -15 -16 -16 -16 -17 -17 -18 -19 -20 -23 -25 -25 -25 -26 -27 -27 -27 -27 -28
-12 -13 -13 -13 -12 -13 -12 -13 -14 -14 -14 -15 -15 -15 -15 -15 -15 -15 -15 -15 -15 -16 -15 -15 -15 -16 -16 -17 -17 -18 -18 -20 -22 -24 -25 -25 -26 -26 -26 -27 -27 -28 -28 -28
-13 -14 -14 -13 -12 -12 -13 -14 -14 -15 -15 -15 -15 -15 -15 -15 -15 -15 -16 -15 -16 -16 -16 -16 -16 -16 -17 -18 -18 -19 -20 -23 -25 -25 -25 -25 -26 -26 -27 -27 -28 -28 -29 -29
-14 -14 -14 -12 -12 -12 -13 -13 -15 -15 -15 -15 -15 -15 -15 -15 -16 -16 -16 -17 -16 -16 -16 -16 -17 -17 -17 -18 -20 -21 -23 -25 -25 -25 -25 -26 -26 -27 -28 -28 -28 -28 -29 -29
-15 -15 -14 -13 -13 -13 -14 -13 -14 -15 -15 -15 -15 -16 -15 -16 -16 -16 -16 -16 -16 -16 -16 -17 -17 -18 -19 -20 -21 -23 -25 -25 -25 -25 -25 -26 -27 -27 -28 -28 -28 -28 -29 -29
-15 -16 -15 -14 -14 -14 -15 -14 -14 -15 -16 -16 -16 -16 -16 -16 -16 -16 -16 -16 -16 -17 -17 -18 -18 -19 -20 -22 -24 -25 -25 -25 -25 -26 -26 -26 -27 -28 -28 -28 -28 -28 -29 -29
-16 -16 -15 -15 -15 -15 -15 -15 -15 -15 -15 -16 -16 -16 -17 -17 -17 -16 -16 -17 -18 -18 -19 -19 -20 -21 -22 -25 -25 -25 -25 -26 -26 -26 -26 -27 -28 -28 -28 -29 -29 -29 -29 -29
-16 -16 -16 -16 -16 -15 -16 -16 -15 -15 -16 -16 -17 -17 -17 -17 -17 -17 -18 -18 -19 -19 -20 -21 -22 -24 -25 -26 -26 -26 -26 -26 -26 -26 -27 -28 -28 -29 -29 -29 -29 -29 -29 -28
-16 -16 -16 -16 -16 -16 -16 -17 -17 -17 -17 -17 -16 -16 -17 -17 -17 -18 -18 -19 -20 -20 -21 -23 -25 -26 -26 -26 -26 -26 -26 -26 -26 -27 -27 -28 -28 -28 -29 -29 -28 -28 -28 -28
-16 -16 -16 -16 -16 -16 -17 -17 -17 -17 -17 -17 -17 -17 -17 -18 -18 -19 -19 -20 -21 -23 -25 -26 -27 -27 -27 -27 -26 -26 -26 -26 -26 -27 -28 -28 -28 -28 -29 -29 -28 -28 -28 -28
-16 -17 -17 -16 -17 -17 -17 -17 -16 -17 -18 -18 -18 -18 -18 -19 -20 -20 -21 -22 -24 -26 -27 -27 -27 -27 -27 -27 -27 -27 -27 -27 -27 -27 -28 -28 -28 -28 -29 -29 -29 -28 -28 -28
-18 -18 -18 -18 -18 -18 -17 -17 -17 -18 -18 -18 -19 -20 -20 -20 -21 -21 -24 -26 -27 -28 -28 -28 -27 -27 -27 -27 -27 -27 -27 -27 -27 -27 -27 -28 -28 -28 -28 -28 -28 -28 -28 -28
-18 -18 -18 -18 -18 -18 -18 -18 -18 -19 -20 -20 -20 -20 -20 -21 -23 -25 -27 -28 -28 -28 -28 -28 -28 -28 -28 -27 -27 -27 -27 -27 -27 -27 -27 -27 -28 -28 -28 -28 -28 -28 -28 -28
-19 -19 -18 -18 -18 -19 -19 -19 -20 -20 -20 -20 -20 -21 -22 -25 -27 -28 -28 -28 -28 -28 -28 -28 -28 -28 -28 -28 -28 -28 -28 -28 -27 -27 -27 -27 -27 -28 -28 -28 -28 -28 -28 -28
-19 -19 -19 -19 -20 -20 -20 -21 -21 -21 -20 -21 -22 -24 -26 -28 -29 -29 -29 -29 -29 -28 -28 -28 -28 -28 -28 -28 -28 -28 -28 -28 -28 -28 -28 -28 -27 -27 -28 -28 -28 -28 -28 -28
-20 -20 -20 -21 -21 -21 -21 -21 -21 -21 -23 -24 -26 -28 -29 -29 -29 -29 -29 -29 -29 -29 -29 -28 -28 -28 -28 -28 -28 -28 -28 -28 -28 -28 -28 -28 -28 -28 -28 -28 -28 -28 -28 -28
-21 -22 -22 -22 -22 -22 -22 -22 -23 -24 -26 -28 -28 -28 -29 -29 -29 -29 -29 -29 -29 -29 -29 -28 -29 -29 -29 -29 -29 -28 -28 -28 -28 -28 -28 -28 -28 -28 -28 -28 -28 -28 -28 -27
-22 -22 -22 -22 -23 -24 -25 -26 -26 -27 -28 -28 -28 -29 -29 -29 -29 -29 -29 -29 -29 -29 -29 -29 -29 -29 -29 -29 -29 -29 -29 -29 -29 -29 -29 -28 -28 -28 -28 -28 -28 -28 -28 -28
-24 -24 -25 -26 -26 -27 -27 -28 -28 -29 -29 -29 -29 -29 -29 -29 -29 -29 -29 -29 -29 -29 -29 -29 -29 -29 -30 -29 -29 -29 -29 -29 -29 -29 -29 -29 -29 -29 -28 -28 -28 -28 -28 -28
-26 -27 -27 -28 -28 -28 -29 -29 -29 -29 -29 -29 -29 -29 -29 -29 -29 -29 -29 -29 -29 -30 -29 -29 -29 -30 -30 -30 -29 -30 -30 -30 -30 -30 -30 -29 -29 -29 -29 -28 -28 -28 -28 -28
-28 -28 -29 -29 -29 -29 -29 -29 -29 -29 -29 -29 -29 -29 -29 -29 -29 -29 -29 -30 -30 -30 -30 -30 -30 -30 -30 -30 -30 -30 -30 -30 -30 -30 -30 -30 -30 -30 -29 -29 -29 -29 -29 -29
-29 -29 -29 -29 -29 -29 -29 -29 -30 -30 -29 -30 -30 -29 -29 -29 -29 -30 -29 -30 -30 -30 -30 -30 -30 -30 -30 -29 -29 -29 -29 -29 -29 -30 -30 -30 -30 -30 -30 -29 -29 -29 -29 -29
-29 -29 -29 -29 -29 -29 -30 -30 -30 -30 -30 -30 -29 -29 -30 -30 -30 -30 -30 -30 -30 -30 -30 -30 -30 -30 -30 -30 -30 -30 -30 -30 -30 -30 -30 -30 -30 -30 -30 -30 -30 -29 -29 -29
-30 -30 -30 -30 -30 -30 -30 -30 -30 -29 -29 -29 -29 -30 -30 -30 -30 -30 -30 -30 -30 -30 -30 -30 -30 -30 -30 -30 -30 -30 -30 -30 -30 -30 -30 -31 -31 -31 -31 -30 -30 -30 -29 -29
-30 -30 -30 -30 -30 -29 -29 -29 -29 -29 -29 -29 -29 -30 -30 -30 -30 -30 -30 -30 -30 -30 -30 -31 -31 -31 -32 -32 -32 -32 -32 -32 -32 -31 -31 -31 -31 -31 -31 -31 -30 -30 -30 -30
-30 -30 -30 -29 -29 -29 -29 -29 -29 -29 -29 -29 -29 -30 -30 -30 -30 -30 -30 -30 -30 -31 -31 -31 -32 -32 -32 -33 -33 -33 -33 -33 -33 -32 -32 -32 -31 -31 -31 -31 -31 -30 -30 -30
Height
5665 5667 5668 5672 5676 5680 5679 5683 5681 5686 5683 5683 5684 5684 5679 5677 5677 5674 5674 5674 5672 5666 5662 5655 5649 5645 5638 5629 5621 5612 5603 5593 5582 5571 5558 5547 5539 5532 5527 5522 5517 5512 5508 5504
5655 5655 5656 5659 5665 5667 5668 5672 5671 5672 5671 5667 5670 5669 5667 5666 5663 5661 5661 5659 5656 5653 5646 5640 5635 5627 5619 5610 5601 5592 5583 5572 5560 5549 5539 5532 5525 5518 5511 5504 5498 5493 5491 5486
5640 5642 5642 5648 5654 5657 5659 5658 5661 5660 5663 5655 5648 5654 5653 5652 5652 5651 5650 5647 5642 5635 5629 5623 5616 5609 5601 5592 5583 5574 5562 5549 5539 5531 5525 5517 5510 5502 5493 5487 5481 5475 5470 5468
5629 5633 5632 5640 5643 5645 5645 5649 5649 5649 5647 5642 5637 5637 5641 5641 5639 5639 5636 5631 5625 5619 5614 5607 5600 5593 5585 5575 5565 5554 5543 5533 5525 5518 5512 5504 5495 5486 5478 5471 5464 5457 5452 5450
5617 5620 5625 5625 5628 5633 5635 5640 5639 5636 5633 5631 5629 5628 5626 5626 5625 5623 5620 5614 5610 5605 5598 5590 5583 5575 5567 5557 5546 5536 5527 5520 5513 5505 5498 5489 5480 5472 5463 5456 5449 5441 5438 5438
5602 5604 5605 5614 5618 5618 5621 5626 5628 5626 5620 5617 5618 5616 5615 5615 5614 5610 5605 5600 5593 5586 5579 5572 5565 5558 5549 5539 5530 5522 5516 5509 5502 5494 5485 5477 5467 5459 5453 5446 5439 5434 5432 5429
5589 5591 5597 5603 5607 5609 5609 5618 5614 5613 5610 5605 5604 5602 5601 5599 5598 5594 5588 5583 5576 5569 5561 5555 5548 5541 5533 5523 5516 5511 5505 5499 5492 5483 5474 5465 5456 5449 5444 5438 5433 5429 5426 5422
5576 5579 5584 5591 5594 5597 5599 5597 5598 5598 5595 5593 5591 5587 5584 5583 5579 5575 5571 5567 5561 5553 5545 5538 5532 5525 5518 5511 5507 5501 5495 5489 5481 5473 5465 5455 5448 5441 5436 5432 5428 5424 5420 5416
5566 5568 5573 5577 5578 5581 5583 5583 5583 5582 5581 5579 5576 5573 5571 5567 5563 5559 5555 5549 5544 5537 5530 5522 5515 5509 5506 5502 5497 5492 5487 5480 5472 5465 5457 5449 5443 5437 5432 5426 5422 5418 5413 5408
5551 5556 5558 5561 5564 5567 5569 5569 5568 5568 5568 5566 5562 5558 5555 5551 5546 5542 5537 5532 5526 5520 5513 5506 5502 5499 5496 5494 5490 5485 5479 5472 5465 5458 5450 5444 5438 5432 5426 5420 5415 5410 5406 5401
5542 5544 5545 5547 5551 5553 5555 5556 5557 5556 5554 5551 5547 5543 5539 5535 5531 5525 5520 5514 5509 5503 5498 5494 5492 5489 5487 5485 5481 5478 5470 5464 5457 5451 5445 5440 5433 5426 5420 5414 5409 5404 5399 5393
5529 5528 5530 5535 5538 5541 5543 5544 5544 5541 5538 5535 5532 5527 5523 5519 5514 5508 5503 5497 5492 5489 5487 5486 5483 5481 5479 5476 5472 5468 5463 5457 5451 5445 5438 5433 5428 5422 5415 5410 5405 5399 5393 5386
5516 5517 5519 5521 5525 5528 5531 5531 5529 5524 5522 5519 5516 5511 5507 5503 5497 5491 5487 5484 5482 5480 5478 5477 5475 5473 5470 5467 5463 5458 5454 5449 5444 5438 5432 5427 5421 5417 5412 5407 5400 5395 5388 5380
5505 5509 5510 5510 5512 5512 5513 5513 5513 5509 5505 5503 5500 5495 5492 5486 5479 5476 5475 5474 5473 5471 5469 5467 5466 5463 5460 5455 5452 5449 5444 5440 5436 5430 5425 5419 5414 5409 5405 5400 5395 5390 5383 5376
5495 5495 5495 5496 5497 5497 5497 5495 5493 5491 5488 5485 5481 5476 5472 5471 5468 5466 5466 5465 5464 5462 5459 5457 5456 5452 5448 5444 5442 5438 5434 5430 5426 5421 5416 5411 5406 5401 5396 5392 5388 5383 5378 5372
5481 5482 5482 5482 5482 5483 5482 5480 5475 5473 5472 5468 5464 5460 5458 5459 5459 5458 5457 5455 5455 5452 5450 5447 5443 5440 5437 5434 5430 5427 5423 5419 5415 5411 5407 5403 5398 5393 5389 5385 5381 5377 5373 5368
5466 5469 5468 5467 5466 5466 5465 5461 5459 5456 5454 5452 5450 5450 5451 5450 5451 5449 5448 5447 5445 5441 5438 5436 5431 5427 5425 5422 5417 5414 5410 5407 5403 5399 5396 5392 5389 5385 5381 5377 5374 5370 5367 5364
5454 5454 5455 5454 5452 5451 5450 5447 5445 5443 5443 5443 5444 5443 5443 5442 5441 5439 5436 5435 5433 5429 5424 5422 5419 5414 5410 5406 5403 5398 5395 5391 5387 5384 5382 5379 5377 5375 5372 5369 5366 5363 5361 5359
5441 5441 5441 5440 5438 5437 5436 5436 5436 5436 5437 5437 5437 5435 5433 5431 5428 5426 5424 5422 5418 5415 5410 5406 5403 5399 5393 5389 5386 5382 5379 5375 5372 5369 5366 5364 5362 5362 5361 5360 5358 5356 5354 5353
5427 5428 5428 5428 5429 5430 5429 5429 5430 5430 5429 5428 5427 5425 5422 5419 5415 5412 5409 5408 5403 5398 5393 5389 5386 5382 5377 5373 5370 5367 5364 5361 5358 5356 5353 5351 5349 5348 5348 5349 5348 5348 5347 5346
5417 5418 5420 5422 5423 5422 5422 5421 5421 5419 5417 5416 5414 5412 5408 5405 5400 5396 5393 5390 5387 5380 5375 5372 5369 5365 5361 5358 5356 5353 5350 5347 5344 5342 5340 5338 5337 5336 5335 5336 5337 5338 5338 5338
5409 5410 5412 5413 5413 5413 5412 5411 5410 5408 5405 5402 5399 5396 5392 5388 5384 5381 5377 5372 5368 5363 5359 5355 5351 5348 5344 5341 5338 5336 5334 5332 5330 5328 5326 5325 5324 5324 5324 5323 5325 5327 5328 5329
5399 5401 5403 5405 5404 5403 5402 5401 5398 5395 5392 5388 5384 5380 5376 5372 5367 5363 5360 5355 5350 5346 5341 5337 5333 5329 5326 5323 5321 5318 5316 5314 5312 5311 5310 5310 5309 5309 5310 5311 5312 5315 5317 5319
5392 5394 5394 5394 5394 5393 5390 5387 5383 5379 5376 5372 5367 5363 5359 5355 5350 5344 5340 5335 5330 5325 5320 5316 5312 5308 5304 5302 5299 5297 5296 5294 5293 5292 5292 5292 5293 5294 5295 5297 5299 5301 5305 5308
5385 5385 5384 5384 5382 5380 5377 5374 5369 5365 5361 5356 5352 5347 5342 5336 5331 5325 5320 5315 5310 5304 5299 5295 5290 5285 5281 5278 5275 5273 5271 5270 5270 5270 5271 5272 5273 5275 5278 5281 5284 5287 5291 5295
5375 5374 5373 5372 5370 5367 5364 5360 5356 5351 5345 5340 5334 5327 5322 5316 5311 5305 5299 5294 5288 5283 5277 5271 5265 5259 5254 5250 5247 5244 5242 5242 5242 5243 5245 5248 5250 5254 5258 5263 5268 5272 5276 5282
5366 5365 5362 5359 5357 5354 5351 5346 5341 5335 5329 5322 5316 5310 5303 5296 5290 5283 5277 5271 5264 5257 5250 5243 5236 5229 5224 5219 5216 5214 5212 5210 5211 5212 5216 5220 5225 5230 5236 5243 5249 5255 5260 5267
Wind_Speed
47 48 50 50 50 49 52 51 54 50 51 53 51 51 56 59 59 62 59 57 58 63 69 72 75 79 82 84 84 85 85 88 91 95 94 75 60 56 57 58 57 55 52 51
50 52 53 56 53 52 53 53 55 54 53 52 51 53 55 57 60 59 59 60 62 68 72 74 78 80 80 81 83 85 87 91 94 85 66 56 57 58 60 60 59 56 51 48
55 54 57 56 52 56 55 57 53 53 50 50 53 51 53 58 59 59 58 62 66 69 73 76 77 79 80 81 83 86 92 89 72 57 56 56 60 61 60 58 56 57 55 46
50 50 56 54 51 53 55 54 54 52 51 53 57 57 56 58 60 59 60 63 67 72 72 74 76 78 79 82 86 90 85 63 53 54 55 59 59 57 59 56 58 59 48 41
56 57 56 56 54 53 52 50 46 49 53 55 58 59 60 59 58 59 61 66 71 70 72 74 76 79 82 86 88 78 55 50 51 53 58 57 56 60 51 53 52 44 37 36
61 62 65 55 52 51 50 50 46 48 51 55 55 56 59 58 59 62 66 67 70 71 73 76 78 82 85 87 76 52 46 46 50 54 54 57 60 48 45 43 35 29 27 33
64 66 57 51 50 50 50 47 46 48 50 52 55 58 59 60 61 62 66 68 70 72 74 77 81 85 85 68 46 42 44 47 49 49 52 58 45 38 35 34 31 27 26 29
46 48 47 45 45 46 48 49 50 51 54 56 57 59 60 60 61 64 66 68 69 72 76 80 82 81 62 41 38 39 40 41 42 45 51 47 39 36 34 29 28 24 27 31
39 43 45 44 45 47 46 48 49 51 53 53 55 55 56 61 63 65 66 67 71 75 77 79 73 52 36 32 31 31 32 35 37 42 43 35 32 30 29 32 31 29 32 30
37 37 38 41 43 43 44 46 48 50 51 50 52 55 58 61 64 65 67 71 73 75 76 59 42 33 26 25 26 29 31 33 36 37 34 31 34 34 31 31 30 31 30 32
41 42 44 44 43 45 47 47 47 46 47 52 54 57 60 63 65 67 70 72 73 66 46 35 31 28 28 28 27 30 32 33 35 35 33 32 36 33 32 29 30 29 33 34
43 42 42 42 44 45 44 41 38 47 52 55 58 60 62 63 65 68 69 69 53 36 31 29 28 28 30 31 31 31 33 34 35 35 34 32 33 28 29 28 30 33 36 37
36 37 37 38 36 32 32 35 43 53 55 58 58 60 62 65 67 67 55 37 30 29 28 29 29 31 32 32 32 33 35 35 35 35 35 34 32 31 30 31 33 33 36 39
29 29 30 33 37 40 40 45 49 54 56 57 59 62 64 64 58 40 29 26 27 29 30 31 33 34 34 34 35 36 36 36 37 37 36 35 35 35 34 33 32 32 35 38
29 34 38 40 43 48 48 51 53 55 56 59 61 62 58 44 29 26 26 26 28 30 32 34 36 38 39 39 39 39 38 38 37 38 38 37 36 36 36 35 34 33 32 35
37 42 46 47 49 50 51 51 55 57 58 58 56 48 33 26 25 26 28 29 31 35 36 39 40 40 41 42 42 43 43 42 41 40 39 38 38 38 36 34 32 32 30 30
47 48 47 49 50 51 51 52 52 51 49 44 34 22 21 23 27 30 33 36 39 41 42 43 44 45 46 47 47 48 48 48 46 45 44 41 39 38 37 35 31 29 28 27
47 47 46 48 49 48 45 43 42 38 28 19 18 20 24 27 32 35 37 38 40 43 46 48 48 50 52 53 53 55 56 56 54 52 48 46 42 39 38 35 31 28 26 24
44 45 44 42 37 34 31 28 25 22 19 21 25 29 32 34 36 39 43 45 47 48 51 53 53 55 57 56 55 54 53 51 50 48 46 44 44 41 38 35 30 27 25 23
36 34 31 28 26 25 23 21 21 23 26 29 30 33 36 40 44 46 49 50 53 56 58 58 56 52 51 51 50 49 49 48 47 45 44 41 39 38 38 36 31 27 26 23
30 28 26 24 23 22 23 25 27 30 33 35 37 40 42 45 49 52 55 57 57 57 56 54 53 52 51 53 52 50 49 49 49 49 46 43 39 38 35 36 33 28 25 24
26 26 27 29 30 32 34 35 34 36 38 40 43 47 49 52 56 58 57 55 54 56 56 55 56 56 56 56 55 53 52 51 51 50 49 49 46 40 36 34 35 31 27 25
31 32 33 34 34 34 34 35 37 40 43 47 50 54 57 58 56 56 56 56 56 56 58 59 59 60 60 60 60 58 57 55 55 54 53 51 48 46 39 35 35 35 30 26
24 25 27 30 32 34 36 40 44 48 51 55 58 57 56 56 56 59 59 59 60 61 62 64 65 65 66 65 64 63 62 62 61 60 58 56 51 48 45 37 35 36 33 29
26 28 30 33 36 40 44 47 51 52 52 53 54 55 56 57 59 61 62 63 64 66 68 69 69 70 70 70 71 71 71 70 69 67 64 61 57 51 47 42 38 37 37 33
30 33 36 40 42 43 43 44 46 49 52 55 57 60 61 62 64 65 66 67 68 70 71 73 75 77 79 79 79 78 77 75 73 70 67 63 60 55 49 45 41 38 39 37
36 38 38 37 38 39 41 44 47 50 54 58 60 62 63 64 65 67 68 70 73 76 79 82 84 84 83 81 78 74 71 69 66 64 61 59 57 55 50 46 43 41 40 41
Wind_Direction
246 247 250 248 241 241 248 253 258 265 266 270 274 273 270 275 278 281 283 286 288 291 297 298 299 299 299 299 299 299 301 301 300 299 301 303 301 301 301 299 297 295 292 288
247 249 250 250 252 254 252 256 262 264 267 271 267 265 272 275 278 282 289 291 292 295 296 296 298 298 299 299 300 302 301 299 300 304 304 304 303 303 301 299 298 297 297 287
253 246 246 249 251 257 260 264 265 265 273 272 270 273 274 277 281 284 289 290 292 292 294 298 297 298 298 300 300 300 299 303 306 304 305 305 305 305 303 301 300 301 298 286
255 253 246 253 254 254 254 258 263 266 265 265 271 276 276 277 281 286 288 289 290 292 295 295 296 298 299 300 300 300 304 306 302 304 307 307 308 308 307 303 301 299 290 277
246 250 254 256 255 259 263 262 261 263 264 265 268 271 276 280 284 285 288 287 289 292 294 296 297 298 299 299 301 306 305 303 304 307 309 309 309 312 307 305 305 299 290 279
251 250 254 256 258 259 259 262 264 265 267 271 273 273 276 279 282 284 285 288 291 294 295 296 297 298 298 300 306 304 302 304 306 307 309 311 312 308 307 308 312 307 294 289
248 253 255 258 260 260 260 266 266 267 268 271 273 274 276 279 282 286 288 290 292 293 295 296 296 296 300 306 302 301 303 305 308 310 311 314 314 309 311 312 309 307 307 304
250 251 253 257 261 263 264 265 266 267 267 269 271 274 278 283 285 287 288 290 291 292 292 294 296 300 305 300 299 303 305 308 310 313 318 323 314 313 313 311 312 309 311 313
258 259 261 263 263 263 265 265 266 266 267 269 274 277 278 280 283 284 286 288 289 291 293 296 300 302 297 299 304 305 314 318 318 320 325 327 330 327 321 317 313 307 312 313
260 256 260 262 263 264 264 262 264 266 269 272 274 275 277 279 281 284 286 287 290 293 296 300 297 293 294 296 303 309 318 328 327 324 325 327 328 324 320 319 318 316 319 318
272 275 270 268 265 264 262 261 266 272 272 271 273 275 276 279 281 284 287 290 293 296 296 291 289 288 291 294 300 307 316 321 327 323 321 320 324 325 325 328 328 327 325 324
273 268 267 263 259 260 265 270 270 269 272 273 274 276 279 282 284 287 290 292 293 288 285 286 287 289 291 293 300 307 312 317 320 322 315 317 320 319 326 328 329 328 332 328
260 256 256 261 266 269 275 276 271 273 274 276 279 281 283 285 286 288 291 283 280 279 283 287 287 288 293 297 303 307 308 312 315 317 318 309 310 317 318 315 318 321 327 330
257 264 271 273 270 271 273 271 270 271 274 276 280 283 284 285 288 283 273 279 281 283 285 288 289 291 294 298 302 304 307 309 311 313 314 314 306 303 307 314 315 313 322 329
270 270 270 270 270 270 272 274 275 277 280 283 283 283 283 282 268 268 277 283 284 285 285 287 290 292 296 299 301 303 304 306 308 310 310 310 312 309 304 304 308 313 317 325
270 267 267 269 271 272 275 279 279 281 282 280 280 280 272 261 270 279 282 281 284 287 289 292 293 294 297 298 300 301 302 303 303 303 303 304 305 308 310 309 304 306 312 319
268 269 270 272 273 276 279 278 278 277 277 277 273 261 262 268 278 282 283 282 284 289 290 292 294 295 295 296 297 298 298 298 298 297 297 298 299 300 303 308 305 300 306 313
265 267 269 272 275 276 275 273 272 272 266 257 261 268 273 276 280 283 284 286 288 290 291 290 291 292 293 294 296 296 296 295 294 292 290 290 290 292 295 299 301 296 296 305
267 271 272 273 273 270 267 263 261 259 263 267 270 273 278 281 282 284 286 289 289 290 290 291 292 293 293 294 293 293 293 293 294 294 293 290 286 283 284 288 293 290 290 292
269 269 267 259 254 253 256 259 261 263 266 269 273 277 279 282 284 286 287 289 291 291 291 292 292 293 293 294 294 294 294 294 295 295 294 293 292 286 276 277 281 282 284 280
254 249 246 247 253 259 266 273 276 276 276 278 280 282 284 286 287 289 290 291 291 290 290 292 293 293 293 292 292 292 291 292 292 293 293 293 291 288 281 268 270 271 276 272
249 252 257 260 262 266 272 276 277 277 279 282 284 286 288 288 289 290 290 290 289 290 291 292 292 292 292 292 291 290 290 289 288 287 288 288 288 286 281 270 261 263 264 265
254 256 258 262 266 270 274 276 277 279 282 284 285 286 288 289 289 289 289 291 292 292 292 292 292 290 289 288 286 285 284 284 284 284 284 284 283 282 278 272 259 254 254 257
257 265 271 273 276 278 281 284 286 288 288 288 289 290 290 291 290 291 292 292 293 292 292 291 290 289 288 286 284 283 281 281 281 281 280 281 280 276 274 267 261 249 247 245
272 273 275 279 281 284 285 287 288 289 289 289 290 290 291 291 292 292 293 292 292 291 290 289 288 286 284 283 281 280 280 279 279 278 277 276 276 273 268 263 255 248 240 238
275 279 281 284 286 288 289 290 291 292 294 295 294 294 293 292 292 291 291 291 290 289 288 287 286 285 284 284 283 283 282 281 280 278 275 273 271 268 264 257 249 245 236 231
281 282 283 285 289 293 296 297 296 296 295 295 294 294 293 292 292 291 291 291 290 290 289 288 287 287 287 286 285 284 282 280 277 274 270 267 263 261 258 251 242 238 233 227